Weather in Wurzburg

Germany     49˚47′42″N   9˚56′08″E
temp.,
°C
wind,
m/s
gust,
m/s
humid.,
%
clouds,
%
prec.,
mm/h
press.,
hPa
HPBL,
m
27 november, fri
fri2701:00+1˚e11820 0.0 102322
04:00+1˚e11725 0.0 102222
07:00+1˚e117030 0.0 102225
10:00+3˚e126244 0.0 1022105
13:00+6˚ene225625 0.0 1021284
16:00+3˚ene22700 0.0 102122
19:00+2˚ene22810 0.0 102122
22:00+1˚ene11800 0.0 102222
28 november, sat
sat2801:00ene12800 0.0 102121
04:00ene12810 0.0 102121
07:00ene12830 0.0 102123
10:00+2˚ne22710 0.0 1022131
13:00+6˚ene24666 0.0 1021341
16:00+4˚ne348118 0.0 102046
19:00+2˚ene479115 0.0 1022123
22:00ene379218 0.0 1023156
29 november, sun
sun2901:00−1˚ene37919 0.0 1024162
04:00−2˚ne37940 0.0 1024174
07:00−2˚ne37950 0.0 1024196
10:00ene47790 0.0 1025380
13:00+3˚ene47670 0.0 1025619
16:00+1˚ne34770 0.0 102577
19:00−1˚ne23880 0.0 102644
22:00−2˚ene24920 0.0 102799
30 november, mon
mon3001:00−2˚ene22930 0.0 102836
04:00−2˚ne11930 0.0 102721
07:00−2˚ne11940 0.0 102821
10:00ene11820 0.0 1029140
13:00+2˚e11680 0.0 1028455
16:00nne01810 0.0 102722
19:00−1˚s11850 0.0 102821
22:00−2˚s23830 0.0 102726
1 december, tue
tue101:00−1˚ssw368137 0.0 1025175
04:00−1˚sw4790100 0.3 1023278
07:00−1˚sw5997100 3.8 1022374
10:00sw5897100 1.6 1020276
13:00+2˚wsw48100100 2.6 1019248
16:00+2˚w4999100 0.9 1018333
19:00+2˚wnw61198100 2.1 1018480
22:00+2˚nw61198100 2.0 1018481